sat.trackr.live / text

‹ back to catalog

STARLINK-32030

NORAD 61513 · 2024-183E

PAYLOAD ACTIVE UNKNOWN

§ Identity

Operator
Country
US
Launch date
2024-10-15
Launch site
AFETR
Launch vehicle
Mass (kg)
RCS (m²)

Purposes: comms

External: N2YO · Heavens-Above · Gunter

§ Orbital elements

Epoch: 2026-05-24T23:55:02.534304Z

Period
94.11 min
Inclination
53.1609°
Eccentricity
0.0001159
Mean motion
15.30191089 rev/d
Perigee alt
474.4 km
Apogee alt
476.0 km
Semi-major
6,853.4 km
B*
1.3438e-5
RAAN
148.1377°
Arg perigee
89.5889°
Mean anomaly
270.5244°
Rev number
9,133

§ Raw data

STARLINK-320301 61513U 24183E   26144.99655711  .00000039  00000+0  13438-4 0  99982 61513  53.1609 148.1377 0001159  89.5889 270.5244 15.30191089 91333

JSON: /api/v1/satellites/61513 · /tle

For live sub-satellite position, see the globe view (requires WebGL).

§ Visibility from observer

Set your observer location to see the next 7 days of passes ≥ 10°. The values pass through the URL so the page stays shareable.

No JS? Fill the form by hand. The geolocation button needs JavaScript.